EW0295 Weather Reports


Display with metric or nautical units.
time (UTC)temp
F
wind
direction
speed
MPH
gust
MPH
rain 1hr
in
rain 24hr
in
rain mn
in
humidity
%
barometer
mb
20260506090903 54 76 3.0 9.0 0.00 0.00 0.00 63 1011.8
20260506090003 54 62 3.0 9.0 0.00 0.00 0.00 62 1011.8
20260506085403 54 73 2.0 9.0 0.00 0.00 0.00 64 1011.8
20260506084503 52 36 4.0 8.0 0.00 0.00 0.00 66 1011.7
20260506083603 53 74 3.0 9.0 0.00 0.00 0.00 66 1011.8
20260506082703 52 350 2.0 8.0 0.00 0.00 0.00 67 1011.8
20260506081803 52 2 1.0 5.0 0.00 0.00 0.00 69 1011.8
20260506080903 52 86 2.0 8.0 0.00 0.00 0.00 68 1011.9
20260506072703 50 36 3.0 7.0 0.00 0.00 0.00 74 1011.8
20260506071803 50 33 1.0 5.0 0.00 0.00 0.00 74 1011.7
20260506070903 49 25 2.0 6.0 0.00 0.00 0.00 75 1011.7
20260506070219 49 11 1.0 4.0 0.00 0.00 0.00 75 1011.8
20260506062016 46 355 2.0 5.0 0.00 0.00 0.00 77 1011.8
20260506060903 46 358 2.0 6.0 0.00 0.00 0.00 78 1011.9
20260506050903 43 18 1.0 4.0 0.00 0.00 0.00 81 1011.7
20260506044503 42 0 0.0 2.0 0.00 0.00 0.00 82 1011.6
20260506043603 41 0 0.0 2.0 0.00 0.00 0.00 82 1011.7
20260506042703 40 0 0.0 1.0 0.00 0.00 0.00 83 1011.7
20260506041803 40 0 0.0 2.0 0.00 0.00 0.00 84 1011.8
20260506040903 39 0 0.0 1.0 0.00 0.00 0.00 85 1011.7
20260506040003 38 0 0.0 2.0 0.00 0.00 0.00 86 1011.7
20260506035403 38 0 0.0 2.0 0.00 0.00 0.00 86 1011.8
20260506034503 37 0 0.0 0.0 0.00 0.00 0.00 86 1011.9
20260506033603 37 0 0.0 0.0 0.00 0.00 0.00 85 1011.9
20260506032915 37 0 0.0 0.0 0.00 0.00 0.00 85 1012.0
20260506032019 38 0 0.0 0.0 0.00 0.00 0.00 84 1012.0
20260506030903 38 344 1.0 2.0 0.00 0.00 0.00 84 1012.2
20260506030003 38 0 0.0 2.0 0.00 0.00 0.00 84 1012.2
20260506025403 38 0 0.0 1.0 0.00 0.00 0.00 84 1012.3
20260506024503 38 0 0.0 1.0 0.00 0.00 0.00 84 1012.3
20260506023603 38 0 0.0 1.0 0.00 0.00 0.00 84 1012.4
20260506022703 38 0 0.0 1.0 0.00 0.00 0.00 83 1012.5
20260506021803 38 0 0.0 2.0 0.00 0.00 0.00 84 1012.4
20260506020903 38 0 0.0 1.0 0.00 0.00 0.00 83 1012.5
20260506020217 38 0 0.0 1.0 0.00 0.00 0.00 83 1012.5
20260506015403 38 0 0.0 1.0 0.00 0.00 0.00 83 1012.5
20260506014503 38 0 0.0 0.0 0.00 0.00 0.00 83 1012.5
20260506013603 39 0 0.0 0.0 0.00 0.00 0.00 83 1012.5
20260506012703 39 0 0.0 1.0 0.00 0.00 0.00 82 1012.3
20260506012018 39 24 1.0 3.0 0.00 0.00 0.00 81 1012.1
20260506010903 40 341 2.0 4.0 0.00 0.00 0.00 81 1012.0
20260506010003 40 343 1.0 3.0 0.00 0.00 0.00 81 1012.1
20260506005403 40 342 1.0 3.0 0.00 0.00 0.00 81 1012.1
20260506004504 40 351 1.0 3.0 0.00 0.00 0.00 81 1012.1
20260506003603 40 343 2.0 6.0 0.00 0.00 0.00 80 1012.1
20260506002703 40 5 1.0 3.0 0.00 0.00 0.00 80 1012.1
20260506001803 41 341 2.0 4.0 0.00 0.00 0.00 80 1012.2
20260506001117 41 341 1.0 4.0 0.00 0.00 0.00 79 1012.2
20260506000003 41 352 2.0 5.0 0.00 0.00 0.00 78 1012.2
20260505235403 41 348 2.0 5.0 0.00 0.00 0.00 78 1012.2
20260505234503 42 345 3.0 7.0 0.00 0.00 0.00 78 1012.2
20260505233603 42 341 3.0 7.0 0.00 0.00 0.00 78 1012.3
20260505232703 42 339 2.0 6.0 0.00 0.00 0.00 78 1012.3
20260505232017 42 348 3.0 7.0 0.00 0.00 0.00 77 1012.4
20260505230903 42 343 3.0 6.0 0.00 0.00 0.00 77 1012.3
20260505230003 42 345 2.0 6.0 0.00 0.00 0.00 77 1012.3
20260505225616 42 346 2.0 6.0 0.00 0.00 0.00 77 1012.4
20260505224503 42 349 1.0 3.0 0.00 0.00 0.00 77 1012.4
20260505223603 42 347 2.0 5.0 0.00 0.00 0.00 77 1012.4
20260505222703 42 0 0.0 3.0 0.00 0.00 0.00 77 1012.5
20260505221803 42 0 0.0 3.0 0.00 0.00 0.00 77 1012.4
20260505220903 43 2 1.0 4.0 0.00 0.00 0.00 76 1012.4
20260505220003 44 346 2.0 5.0 0.00 0.00 0.00 76 1012.3
20260505215403 44 344 1.0 4.0 0.00 0.00 0.00 76 1012.3
20260505214503 44 324 1.0 4.0 0.00 0.00 0.00 75 1012.4
20260505213818 44 323 2.0 4.0 0.00 0.00 0.00 75 1012.4
20260505212703 45 313 1.0 3.0 0.00 0.00 0.00 74 1012.4
20260505211803 45 0 0.0 2.0 0.00 0.00 0.00 73 1012.4
20260505211116 45 0 0.0 3.0 0.00 0.00 0.00 72 1012.5
20260505210003 46 308 1.0 4.0 0.00 0.00 0.00 71 1012.4
20260505205619 46 303 1.0 4.0 0.00 0.00 0.00 71 1012.4
20260505204503 46 0 0.0 3.0 0.00 0.00 0.00 71 1012.5
20260505203818 46 0 0.0 0.0 0.00 0.00 0.00 69 1012.5
20260505202703 47 0 0.0 0.0 0.00 0.00 0.00 68 1012.5
20260505201803 47 0 0.0 2.0 0.00 0.00 0.00 68 1012.5
20260505200903 47 307 1.0 4.0 0.00 0.00 0.00 67 1012.4
20260505200219 46 307 1.0 4.0 0.00 0.00 0.00 69 1012.4
20260505195403 47 0 0.0 0.0 0.00 0.00 0.00 69 1012.4
20260505194718 47 0 0.0 0.0 0.00 0.00 0.00 68 1012.2
20260505193817 48 0 0.0 0.0 0.00 0.00 0.00 66 1012.3
20260505192916 48 0 0.0 0.0 0.00 0.00 0.00 65 1012.2
20260505191803 48 0 0.0 0.0 0.00 0.00 0.00 65 1012.2
20260505190903 48 0 0.0 0.0 0.00 0.00 0.00 64 1012.2
20260505190003 49 0 0.0 0.0 0.00 0.00 0.00 64 1012.2
20260505185403 49 0 0.0 0.0 0.00 0.00 0.00 64 1012.1
20260505184503 50 0 0.0 2.0 0.00 0.00 0.00 64 1012.0
20260505183603 50 83 1.0 4.0 0.00 0.00 0.00 66 1012.0
20260505182916 50 101 1.0 4.0 0.00 0.00 0.00 74 1011.9
20260505181803 50 95 2.0 6.0 0.00 0.00 0.00 75 1011.9
20260505181119 51 80 2.0 6.0 0.00 0.00 0.00 76 1011.9
20260505180003 51 72 1.0 5.0 0.00 0.00 0.00 76 1011.9
20260505175618 51 72 2.0 5.0 0.00 0.00 0.00 76 1011.9
20260505174717 51 70 3.0 7.0 0.00 0.00 0.00 76 1011.7
20260505173603 52 86 2.0 7.0 0.00 0.00 0.00 75 1011.6
20260505172703 52 94 2.0 6.0 0.00 0.00 0.00 74 1011.6
20260505172019 52 128 2.0 4.0 0.00 0.00 0.00 71 1011.6
20260505170903 52 91 1.0 5.0 0.00 0.00 0.00 68 1011.5
20260505170003 53 96 1.0 4.0 0.00 0.00 0.00 64 1011.6
20260505165617 53 100 1.0 5.0 0.00 0.00 0.00 62 1011.5
20260505164717 53 94 3.0 6.0 0.00 0.00 0.00 61 1011.5
20260505163603 54 78 2.0 6.0 0.00 0.00 0.00 59 1011.5
20260505162915 54 85 2.0 6.0 0.00 0.00 0.00 58 1011.5
20260505161803 55 155 1.0 4.0 0.00 0.00 0.00 52 1011.4
20260505160903 55 133 3.0 7.0 0.00 0.00 0.00 51 1011.4
20260505152703 56 172 5.0 12.0 0.00 0.00 0.00 55 1011.2
20260505151803 56 160 5.0 9.0 0.00 0.00 0.00 58 1011.1
20260505150903 56 172 3.0 9.0 0.00 0.00 0.00 59 1011.2
20260505130216 58 295 4.0 9.0 0.00 0.00 0.00 42 1011.6
20260505124503 58 296 1.0 6.0 0.00 0.00 0.00 43 1011.6
20260505123819 58 268 1.0 5.0 0.00 0.00 0.00 43 1011.5
20260505122703 59 200 1.0 5.0 0.00 0.00 0.00 45 1011.5
20260505122017 59 162 1.0 5.0 0.00 0.00 0.00 46 1011.6
20260505120903 58 154 1.0 3.0 0.00 0.00 0.00 43 1011.6
20260505120216 57 277 1.0 5.0 0.00 0.00 0.00 41 1011.6
20260505115615 57 262 1.0 4.0 0.00 0.00 0.00 40 1011.6
20260505114503 56 287 1.0 4.0 0.00 0.00 0.00 44 1011.6
20260505113603 56 330 1.0 7.0 0.00 0.00 0.00 44 1011.7
20260505112917 55 341 3.0 8.0 0.00 0.00 0.00 42 1011.8
20260505111803 55 326 2.0 6.0 0.00 0.00 0.00 43 1011.8
20260505111116 55 326 3.0 9.0 0.00 0.00 0.00 45 1011.8
20260505110215 55 323 2.0 6.0 0.00 0.00 0.00 46 1011.9
20260505101803 54 327 2.0 5.0 0.00 0.00 0.00 50 1012.0
20260505100903 54 324 3.0 8.0 0.00 0.00 0.00 47 1012.1
20260505100003 54 305 2.0 7.0 0.00 0.00 0.00 58 1012.0
20260505095403 54 10 1.0 5.0 0.00 0.00 0.00 56 1012.0
20260505094503 53 323 2.0 7.0 0.00 0.00 0.00 58 1012.1
20260505093603 53 321 1.0 6.0 0.00 0.00 0.00 60 1012.1
20260505092703 52 330 3.0 7.0 0.00 0.00 0.00 62 1012.2
20260505091803 52 312 1.0 7.0 0.00 0.00 0.00 66 1012.2